Location: Pitton
(51.0667°N, 1.7000°W)
Time: 23:35:34
(UTC+00:00)

ATLAS 2AS CENTAUR R/B - Pass Details

Date: 17 September 2019
Orbit: 919 x 1292 km, 63.6° (Epoch: 18 October)

Event Time Altitude Azimuth Distance (km) Brightness Sun altitude
Rises 19:23:45 0° 316° (NW) 4,232 7.0 -11.1°
Reaches altitude 10° 19:26:39 10° 314° (NW) 3,229 6.3 -11.5°
Maximum altitude 19:34:22 69° 234° (SW) 1,256 3.2 -12.7°
Drops below altitude 10° 19:41:25 10° 152° (SSE) 2,960 4.6 -13.7°
Enters shadow 19:41:51 - 152° (SSE) 3,109 4.7 -13.8°
